Wind_Speed
10 15 7 5 8 9 9 7 6 10 8 10 11 2 13 16 13 15 26 26 28 28 28 27 27 26 22 20 21 20 20 21 21 20 18 16 13 9 8 9 10 10 9 9 9 9 10 9 9
12 5 12 5 3 11 9 9 11 14 13 12 10 11 11 19 4 26 29 29 28 28 27 24 22 21 20 20 20 21 21 21 20 19 17 15 12 8 8 8 9 8 9 9 9 10 9 9 8
12 12 9 6 11 10 13 8 14 13 10 6 5 9 14 6 23 25 28 29 26 26 23 21 20 19 20 19 20 21 20 19 18 17 16 14 10 7 7 7 7 7 8 9 9 9 9 9 9
7 4 6 10 8 8 12 12 11 9 7 9 10 17 21 21 19 23 28 25 23 23 22 20 19 19 19 20 20 20 19 18 17 16 15 12 9 6 5 6 6 6 7 8 9 9 10 10 10
2 3 13 9 9 8 8 9 8 9 7 11 13 24 24 19 19 23 25 25 23 22 20 19 19 19 20 20 20 19 17 16 16 15 14 11 8 5 4 4 5 6 7 8 9 8 9 10 10
6 9 9 13 8 7 7 9 7 7 8 10 15 22 17 21 22 22 22 24 22 21 19 19 19 20 20 20 18 17 16 16 15 14 12 9 6 3 2 4 4 5 6 9 10 9 9 9 9
6 14 7 10 6 7 7 8 5 6 8 12 16 15 19 22 22 21 22 22 22 19 19 18 18 18 19 18 17 17 16 15 14 12 9 7 5 1 2 5 5 6 7 8 9 8 7 7 8
7 3 3 3 9 8 7 8 6 8 10 16 14 9 22 23 23 22 23 22 23 18 18 18 17 17 18 17 16 16 14 13 11 9 6 4 2 1 2 3 5 7 8 8 9 8 6 5 6
6 6 5 3 9 10 8 7 8 9 13 14 11 9 20 21 22 21 22 21 21 20 18 19 17 16 16 16 15 14 13 11 9 8 6 4 2 2 2 2 5 5 6 7 8 7 5 5 4
4 3 5 3 7 10 8 6 9 10 13 12 12 17 17 20 21 21 18 19 19 21 15 16 16 15 15 15 14 13 13 12 10 8 6 6 4 2 3 4 5 5 6 7 6 7 8 8 9
8 12 5 2 3 5 7 7 8 9 10 12 15 18 15 19 19 19 17 16 17 17 17 17 16 14 14 15 14 13 13 12 10 8 7 6 5 4 4 6 9 7 7 10 12 12 6 12 12
11 8 3 1 2 7 8 8 7 8 6 12 14 15 13 17 17 19 17 18 17 17 17 18 17 16 16 14 15 15 12 11 10 10 7 6 5 3 4 7 9 8 4 10 12 13 14 15 16
13 8 5 5 5 8 10 9 8 9 10 12 16 12 14 14 16 18 19 19 19 18 16 16 15 14 13 12 13 13 13 12 10 9 9 8 6 8 9 7 8 8 11 11 13 15 17 17 19
12 12 10 7 9 11 13 11 10 12 11 14 13 10 13 16 16 18 20 21 20 17 15 14 14 14 14 13 12 12 12 12 11 10 10 9 9 7 11 10 10 12 13 12 15 16 19 21 22
17 13 11 9 10 13 14 12 13 14 14 15 15 12 15 16 18 19 19 19 18 18 17 15 14 14 13 13 13 13 11 11 12 11 11 11 11 11 11 12 12 12 14 13 16 17 21 20 20
21 17 18 14 14 14 17 19 16 15 17 16 17 15 15 16 19 18 18 17 17 17 18 17 17 15 15 14 14 14 11 11 10 12 14 13 12 11 12 13 16 16 16 17 18 15 16 23 21
21 23 20 14 17 15 16 13 16 17 16 18 20 19 17 18 19 16 16 17 19 20 20 19 18 16 15 16 15 14 14 15 15 14 17 18 13 13 14 13 16 18 16 20 21 20 20 25 19
26 25 25 21 20 19 18 9 13 15 16 18 21 23 22 20 17 17 18 19 20 21 21 20 19 18 17 15 15 14 15 14 15 17 18 15 15 15 15 16 16 18 18 19 17 18 23 22 19
25 24 20 19 20 23 20 16 14 14 14 18 21 24 26 25 21 20 20 21 22 22 22 22 21 19 19 15 17 18 18 17 17 16 19 16 15 15 17 17 18 16 18 18 21 20 21 17 16
29 27 23 17 21 25 21 22 20 17 17 18 21 23 26 27 26 27 26 25 23 20 19 18 18 20 19 18 17 19 16 13 15 16 17 14 14 15 15 13 14 13 13 15 14 14 14 13 12
33 30 25 22 23 24 20 22 22 19 18 19 20 22 25 28 29 31 32 28 26 25 22 19 18 20 21 18 20 19 18 16 16 15 14 11 9 7 6 5 5 5 8 11 11 11 11 10 13
34 30 27 25 22 21 27 26 30 25 25 23 22 23 26 29 30 31 32 33 29 27 24 23 22 21 23 21 22 18 17 17 13 10 7 8 5 4 3 2 2 5 7 11 13 14 13 10 8
36 30 29 28 26 26 33 30 22 25 29 26 23 25 26 27 30 32 32 31 31 29 27 24 23 22 23 24 22 20 21 16 12 12 13 11 9 6 5 2 1 4 7 8 10 12 12 11 9
33 30 31 32 32 27 32 30 32 27 26 21 22 23 25 28 30 31 31 28 29 30 29 27 25 23 24 24 23 22 19 19 15 17 17 13 11 8 5 4 4 6 9 11 11 10 11 12 12
37 35 28 26 25 21 33 30 29 25 24 21 25 24 26 28 30 32 28 25 25 29 31 30 27 24 24 23 22 22 20 19 18 20 18 15 13 11 9 7 8 10 12 15 16 14 12 12 13
44 43 35 23 18 19 35 35 38 32 23 16 21 21 20 24 28 32 26 22 22 24 28 29 27 26 24 22 20 20 21 21 21 20 20 20 18 15 11 9 8 10 12 16 19 21 18 15 14
42 49 42 39 33 31 36 35 32 19 25 30 27 25 23 22 28 28 25 25 23 23 23 22 25 26 25 22 21 22 24 23 23 25 24 21 19 14 13 10 14 18 20 20 19 21 22 19 16
48 43 44 46 27 25 31 31 29 28 28 27 27 23 22 22 25 31 32 27 24 23 24 24 25 26 27 25 24 24 24 26 28 28 26 26 20 20 20 17 23 29 33 33 32 25 24 22 18
39 51 42 45 45 21 20 27 31 18 17 26 26 25 23 19 24 29 32 27 24 25 28 26 29 29 28 28 28 26 24 24 28 29 29 29 28 25 29 31 32 30 32 29 34 29 24 25 21
42 43 50 40 40 41 42 32 21 25 21 23 21 19 18 22 23 23 30 32 30 26 28 30 31 29 26 28 28 28 29 30 29 30 31 31 33 32 35 34 38 40 37 30 34 30 30 26 23
Wind_Direction
41 39 82 77 93 101 118 113 125 129 101 115 92 38 145 134 103 129 130 129 133 129 127 133 132 132 133 137 135 133 133 138 142 144 144 142 140 127 102 90 82 71 61 50 46 49 47 41 49
67 64 29 332 49 97 117 119 98 97 112 96 73 92 141 136 113 136 137 136 136 133 134 135 135 136 137 144 141 139 137 140 140 142 145 147 145 125 103 83 66 58 55 52 51 44 42 41 48
75 54 349 305 91 62 99 107 111 110 101 76 65 93 162 156 143 131 139 138 137 141 141 140 138 136 138 142 140 139 136 136 143 147 150 151 147 127 105 85 74 60 53 52 50 48 45 37 35
112 319 288 21 58 62 107 118 118 105 90 84 93 87 126 122 140 137 137 140 141 141 141 140 141 139 140 140 140 139 139 141 143 149 153 151 142 127 104 83 64 49 42 49 51 52 50 47 39
136 300 266 73 73 97 113 122 122 114 98 87 116 124 126 135 153 146 141 142 141 138 137 139 143 142 140 140 142 143 141 140 145 148 148 145 139 125 84 41 29 31 37 48 48 49 53 53 51
222 15 296 95 88 102 124 131 128 126 128 121 134 133 135 143 149 148 154 147 145 140 138 139 142 140 140 144 143 144 146 145 147 146 144 140 137 124 44 16 27 29 37 44 43 44 48 51 48
275 274 340 89 104 110 131 145 132 145 135 135 134 136 150 149 154 151 156 153 142 143 144 141 139 141 145 148 150 153 154 151 152 147 149 153 149 160 346 3 32 29 26 28 26 32 38 44 49
280 229 193 69 123 109 145 132 147 146 140 151 140 165 157 159 153 163 156 158 146 155 147 142 148 151 151 155 156 161 159 160 161 163 166 168 170 247 348 10 14 23 14 12 15 20 20 28 25
262 268 250 247 77 126 134 143 130 147 147 148 166 163 168 165 155 159 164 162 160 158 156 156 153 154 157 161 162 164 166 168 173 177 184 188 154 316 282 26 1 8 3 2 2 9 359 349 331
237 300 338 120 126 139 139 145 156 138 156 161 147 164 192 174 165 166 166 165 167 167 161 162 164 163 167 170 171 176 176 180 187 194 197 212 225 282 3 346 333 337 335 336 333 338 328 317 352
220 200 338 94 163 168 153 161 155 156 165 178 168 171 184 189 175 173 173 173 169 174 168 174 173 175 175 176 183 187 189 190 197 208 219 227 242 311 312 329 347 330 335 350 315 334 327 317 318
240 231 280 119 169 181 175 167 169 159 186 180 177 179 186 194 188 178 176 173 179 184 182 177 181 183 189 186 187 193 196 197 211 210 221 239 245 266 263 247 261 321 276 291 302 306 314 312 315
227 236 231 247 234 194 185 190 185 175 162 166 178 179 177 189 195 188 181 185 184 188 187 185 184 188 198 196 203 203 196 210 215 222 225 244 260 247 238 282 294 284 292 291 313 310 309 314 315
221 240 237 242 228 200 195 196 190 194 166 175 179 181 181 181 190 193 195 193 192 194 195 196 191 197 202 206 215 221 223 215 220 229 239 241 256 261 268 280 286 295 299 306 312 317 310 303 300
226 240 228 235 212 192 183 197 199 201 187 186 182 188 188 187 193 200 205 205 200 200 200 202 206 209 211 213 214 220 226 228 226 243 245 254 258 273 275 280 293 296 309 310 312 320 321 315 313
230 226 234 211 195 189 189 194 190 195 195 194 192 195 197 196 201 204 207 211 215 219 216 213 218 217 220 220 224 229 225 228 240 230 268 261 263 269 277 284 303 299 306 306 307 306 283 309 311
219 223 226 174 189 196 209 227 192 190 198 200 201 203 204 203 205 204 207 211 215 217 220 221 226 227 227 222 224 226 231 234 247 235 238 244 263 269 276 284 282 292 298 301 304 297 304 309 307
216 218 220 196 193 199 206 213 160 193 200 205 207 208 207 214 215 213 218 219 221 222 224 225 228 228 231 235 238 240 237 233 237 244 248 251 260 271 278 285 287 294 298 302 289 302 302 299 296
221 220 230 223 193 193 202 218 194 205 205 210 215 211 214 213 219 224 224 226 228 230 231 233 233 233 234 240 238 236 243 242 239 241 255 248 261 271 274 278 289 286 297 289 295 298 299 300 296
229 235 232 227 182 195 204 214 212 209 215 212 213 219 216 217 215 222 228 230 234 238 237 235 240 242 240 240 240 239 245 229 243 245 252 257 265 267 265 272 281 288 278 302 298 300 298 302 304
226 232 233 224 183 211 215 228 210 214 226 215 219 219 221 217 216 223 228 234 236 240 242 247 246 246 243 243 237 236 235 231 227 237 246 244 236 236 241 252 277 305 305 320 335 326 315 309 307
225 223 235 228 204 236 210 247 208 216 218 227 221 221 218 217 217 221 228 231 238 243 245 244 245 245 245 234 240 233 236 234 233 229 226 198 200 178 154 126 325 327 330 336 347 344 336 328 315
225 222 228 234 222 214 224 225 222 224 210 216 228 225 222 219 217 216 224 231 235 241 244 244 245 247 242 229 230 225 223 220 208 199 194 162 155 163 172 181 295 333 342 349 345 345 338 334 320
217 227 230 233 240 248 237 221 245 192 226 216 223 228 226 221 220 220 218 233 235 236 241 243 241 243 231 223 218 217 217 211 205 181 175 182 189 197 218 266 307 327 334 334 334 332 334 331 326
217 222 231 235 229 235 237 225 221 237 226 226 224 230 228 223 218 218 228 236 239 230 237 237 235 226 221 217 215 211 208 203 200 188 192 197 205 222 241 265 301 313 322 322 321 324 322 318 315
214 215 221 225 231 231 232 240 236 236 227 228 227 230 230 221 221 218 229 237 247 236 229 230 223 216 214 213 214 209 203 200 198 200 202 206 218 230 252 263 290 306 314 315 316 315 315 307 307
219 220 222 233 233 237 228 227 241 237 236 234 239 235 235 228 222 219 223 229 236 242 236 224 219 214 212 213 215 210 203 200 203 208 210 217 226 239 244 268 289 298 303 304 304 303 304 304 301
223 220 221 230 240 242 233 237 224 221 233 231 228 229 228 228 221 214 219 225 227 238 239 219 212 210 212 216 216 214 208 207 210 218 219 228 236 250 260 267 286 303 315 308 299 295 299 302 297
216 227 224 227 232 243 245 242 228 226 222 221 222 227 224 224 222 215 219 227 229 234 237 224 213 209 216 224 224 220 220 223 223 229 232 239 244 255 267 278 289 297 294 317 303 278 285 296 295
224 225 225 229 226 236 251 247 228 222 222 225 222 218 226 223 218 219 220 218 224 230 238 229 220 218 222 231 233 231 232 236 241 245 254 249 252 264 273 283 282 284 289 303 319 282 281 285 292
Height
3165 3163 3162 3161 3150 3162 3164 3165 3164 3165 3166 3166 3167 3162 3164 3166 3166 3171 3170 3172 3174 3176 3177 3180 3182 3185 3186 3190 3192 3193 3195 3197 3199 3201 3203 3205 3207 3208 3208 3208 3208 3208 3208 3207 3207 3205 3204 3203 3203
3168 3163 3159 3159 3163 3165 3165 3166 3165 3166 3166 3169 3169 3167 3167 3167 3169 3169 3172 3175 3178 3180 3182 3184 3186 3187 3189 3192 3193 3195 3197 3199 3202 3204 3206 3208 3209 3209 3209 3209 3209 3209 3209 3208 3207 3206 3205 3205 3204
3168 3164 3161 3162 3163 3167 3166 3167 3168 3170 3171 3171 3170 3169 3169 3170 3172 3174 3176 3178 3180 3181 3184 3186 3188 3189 3191 3194 3195 3198 3200 3203 3205 3207 3209 3210 3210 3210 3210 3210 3210 3210 3210 3209 3208 3208 3207 3206 3206
3167 3169 3168 3167 3167 3167 3167 3169 3171 3172 3173 3173 3171 3170 3170 3176 3175 3177 3178 3181 3182 3184 3186 3188 3190 3192 3194 3196 3198 3201 3203 3205 3207 3209 3210 3211 3211 3211 3211 3211 3212 3211 3210 3210 3209 3209 3209 3207 3206
3169 3172 3167 3169 3170 3170 3170 3172 3173 3173 3175 3176 3175 3175 3175 3179 3178 3179 3181 3183 3186 3187 3189 3191 3193 3194 3197 3199 3202 3204 3205 3207 3209 3210 3211 3212 3212 3213 3213 3213 3213 3212 3211 3211 3210 3210 3210 3210 3208
3172 3175 3169 3166 3172 3173 3173 3174 3175 3175 3177 3177 3177 3177 3178 3178 3179 3182 3185 3186 3187 3189 3192 3193 3195 3197 3199 3201 3203 3205 3207 3209 3210 3211 3212 3213 3214 3214 3214 3213 3213 3213 3212 3212 3212 3211 3211 3211 3211
3173 3175 3172 3167 3172 3173 3175 3176 3176 3177 3179 3180 3180 3181 3179 3180 3183 3185 3186 3188 3189 3192 3194 3196 3197 3199 3201 3203 3205 3207 3208 3210 3211 3212 3213 3215 3216 3216 3216 3215 3215 3214 3213 3213 3213 3212 3212 3212 3211
3173 3175 3169 3169 3169 3174 3175 3176 3177 3178 3180 3181 3183 3182 3180 3182 3184 3185 3188 3190 3191 3195 3196 3197 3199 3200 3202 3204 3206 3208 3210 3211 3212 3213 3215 3216 3217 3217 3217 3216 3216 3215 3214 3214 3214 3214 3214 3213 3213
3175 3174 3169 3170 3169 3173 3175 3177 3178 3179 3179 3181 3183 3183 3182 3182 3187 3187 3188 3191 3193 3195 3198 3199 3200 3202 3204 3205 3207 3209 3211 3212 3213 3214 3215 3216 3216 3216 3217 3216 3216 3215 3215 3215 3214 3214 3214 3214 3213
3176 3171 3167 3169 3169 3171 3176 3177 3178 3180 3180 3182 3183 3185 3182 3184 3187 3190 3190 3192 3194 3196 3199 3200 3202 3203 3205 3206 3209 3210 3211 3212 3214 3214 3216 3217 3217 3217 3217 3217 3216 3216 3216 3216 3215 3215 3214 3213 3211
3174 3175 3167 3170 3171 3171 3175 3177 3178 3180 3181 3182 3183 3182 3182 3185 3188 3192 3191 3193 3196 3198 3201 3200 3203 3204 3206 3207 3209 3210 3211 3213 3214 3215 3216 3216 3217 3218 3218 3216 3217 3216 3216 3215 3214 3214 3214 3212 3211
3173 3172 3171 3171 3172 3173 3174 3176 3179 3180 3180 3182 3183 3182 3183 3185 3188 3192 3194 3197 3200 3199 3200 3201 3202 3204 3206 3207 3209 3210 3211 3212 3213 3214 3215 3215 3216 3217 3218 3218 3219 3217 3216 3216 3215 3213 3212 3211 3209
3171 3170 3171 3171 3172 3172 3173 3176 3178 3180 3181 3181 3182 3182 3183 3186 3189 3191 3195 3198 3199 3199 3200 3201 3203 3205 3206 3208 3208 3209 3210 3212 3213 3213 3214 3214 3215 3216 3216 3217 3217 3216 3216 3216 3213 3212 3211 3209 3207
3169 3169 3169 3170 3170 3171 3173 3175 3177 3179 3180 3181 3181 3181 3183 3185 3188 3190 3192 3194 3196 3197 3199 3200 3202 3204 3206 3207 3208 3209 3209 3210 3212 3212 3213 3213 3214 3215 3215 3215 3215 3215 3214 3212 3212 3210 3209 3206 3204
3167 3168 3168 3168 3168 3169 3171 3174 3175 3176 3179 3180 3181 3181 3183 3185 3187 3189 3191 3192 3194 3196 3198 3200 3202 3204 3205 3206 3207 3208 3209 3210 3211 3211 3212 3213 3213 3214 3214 3213 3213 3213 3212 3211 3209 3208 3205 3204 3202
3165 3165 3162 3162 3166 3167 3169 3167 3171 3175 3177 3180 3181 3181 3182 3184 3186 3188 3190 3192 3194 3196 3197 3200 3201 3202 3203 3205 3205 3206 3208 3209 3210 3211 3211 3211 3211 3211 3211 3212 3211 3211 3210 3208 3207 3206 3205 3203 3200
3159 3158 3158 3159 3161 3165 3167 3165 3166 3171 3174 3177 3180 3181 3182 3182 3184 3186 3188 3190 3191 3193 3195 3197 3199 3201 3202 3203 3203 3204 3205 3206 3207 3209 3210 3210 3209 3210 3210 3210 3210 3208 3208 3206 3205 3204 3202 3200 3199
3153 3154 3151 3152 3158 3162 3164 3163 3164 3170 3172 3175 3177 3179 3180 3181 3182 3184 3186 3188 3189 3191 3193 3195 3196 3198 3199 3200 3202 3202 3203 3204 3205 3206 3206 3206 3207 3207 3208 3207 3207 3206 3205 3204 3203 3201 3200 3198 3196
3149 3148 3147 3150 3150 3159 3161 3162 3164 3168 3170 3172 3174 3176 3177 3178 3180 3181 3183 3184 3186 3188 3190 3192 3193 3195 3197 3198 3198 3200 3200 3201 3202 3202 3203 3204 3205 3206 3206 3206 3204 3204 3203 3202 3201 3199 3196 3195 3192
3147 3144 3145 3147 3148 3154 3156 3157 3159 3162 3166 3168 3170 3172 3174 3176 3178 3176 3178 3181 3182 3185 3187 3189 3190 3192 3194 3194 3196 3197 3198 3199 3202 3201 3201 3201 3202 3203 3203 3204 3204 3203 3203 3201 3199 3197 3195 3193 3191
3144 3142 3141 3143 3142 3153 3151 3155 3154 3158 3161 3164 3166 3168 3170 3171 3173 3172 3173 3176 3179 3180 3183 3186 3188 3189 3191 3192 3192 3194 3195 3197 3198 3199 3199 3201 3202 3202 3203 3203 3203 3202 3201 3199 3197 3196 3194 3192 3190
3138 3142 3140 3140 3145 3145 3147 3142 3145 3150 3154 3158 3160 3162 3164 3165 3168 3169 3167 3171 3174 3176 3179 3181 3183 3185 3187 3189 3189 3192 3193 3194 3196 3198 3199 3200 3201 3202 3202 3202 3201 3201 3200 3198 3196 3194 3192 3191 3190
3135 3139 3140 3138 3137 3144 3138 3140 3135 3144 3144 3150 3154 3156 3159 3161 3162 3163 3163 3165 3169 3172 3174 3176 3178 3180 3182 3185 3186 3189 3190 3193 3198 3199 3199 3200 3201 3202 3201 3201 3200 3199 3197 3195 3194 3193 3191 3189 3188
3135 3136 3135 3136 3133 3127 3129 3133 3132 3139 3139 3143 3147 3151 3153 3156 3158 3159 3161 3161 3163 3167 3169 3171 3173 3176 3179 3181 3183 3185 3188 3190 3194 3195 3197 3199 3199 3199 3199 3199 3198 3198 3196 3194 3192 3190 3189 3188 3187
3128 3131 3129 3126 3121 3120 3124 3125 3132 3128 3132 3137 3142 3144 3146 3148 3152 3153 3153 3155 3158 3160 3163 3166 3169 3172 3175 3178 3180 3183 3185 3188 3191 3192 3195 3196 3197 3197 3196 3196 3195 3194 3194 3193 3190 3188 3186 3185 3185
3116 3120 3117 3117 3113 3115 3120 3114 3117 3124 3128 3132 3135 3139 3140 3142 3145 3145 3146 3150 3153 3155 3158 3161 3164 3168 3172 3175 3178 3180 3183 3186 3188 3191 3192 3193 3193 3193 3193 3192 3191 3190 3190 3189 3188 3187 3185 3184 3182
3108 3108 3115 3115 3111 3109 3107 3111 3116 3118 3122 3127 3131 3134 3136 3137 3139 3139 3141 3143 3147 3150 3153 3157 3161 3165 3168 3172 3175 3177 3180 3183 3185 3187 3188 3189 3189 3189 3188 3189 3189 3188 3187 3185 3183 3183 3183 3181 3180
3099 3107 3109 3104 3101 3098 3098 3100 3104 3111 3119 3122 3125 3128 3130 3133 3134 3135 3135 3138 3141 3145 3149 3154 3157 3161 3165 3168 3170 3174 3176 3179 3181 3182 3184 3184 3186 3185 3186 3185 3186 3186 3185 3183 3181 3178 3178 3178 3175
3092 3092 3095 3101 3101 3095 3095 3092 3100 3105 3112 3116 3120 3122 3124 3127 3130 3131 3132 3134 3137 3141 3143 3148 3152 3156 3160 3163 3166 3170 3173 3175 3177 3178 3179 3180 3181 3181 3181 3182 3181 3179 3179 3178 3175 3172 3171 3171 3171
3085 3087 3091 3089 3093 3092 3092 3089 3095 3102 3106 3112 3113 3116 3120 3120 3124 3127 3129 3130 3131 3134 3137 3141 3147 3151 3155 3158 3163 3166 3169 3171 3172 3173 3174 3176 3176 3177 3178 3177 3175 3173 3171 3170 3169 3169 3168 3167 3167